Location: Arboyeti
(42.1122°N, 44.6017°E)
Time: 19:48:34
(UTC+00:00)

Cosmos 2322 - Pass Details

Date: 19 April 2021
Orbit: 843 x 852 km, 71.0° (Epoch: 17 May)

Event Time Altitude Azimuth Distance (km) Brightness Sun altitude
Rises 16:31:25 0° 337° (NNW) 3,409 7.6 -8.5°
Reaches altitude 10° 16:33:53 10° 340° (NNW) 2,470 6.8 -8.9°
Maximum altitude 16:39:33 71° 64° (ENE) 891 3.7 -9.9°
Drops below altitude 10° 16:45:10 10° 149° (SSE) 2,455 5.6 -10.8°
Enters shadow 16:45:29 - 149° (SSE) 2,574 5.7 -10.9°
